This demonstration page uses our WeatherBlox Daily Observations layout. Learn more.

Left ArrowRight Arrow

44.8408, -93.29828

Hourly Observations for July 19, 2019

Temp ( °F °C ) Dew Point ( °F °C ) Humidity (%) Winds ( mph kmh ) Pressure ( in mb ) Visibility ( mi km ) Precip ( " mm )
12:53 am 00:53 Partly Cloudy 77 25 70 21.1 79 79 SE 5 7 29.65 1004 10 16 0.00 0.00
1:53 am 01:53 Partly Cloudy 76 24.4 70 21.1 82 82 ESE 6 9 29.67 1005 10 16 0.00 0.00
2:53 am 02:53 Mostly Clear 75 23.9 69 20.6 82 82 ESE 6 9 29.66 1004 10 16 0.00 0.00
3:53 am 03:53 Mostly Clear 75 23.9 69 20.6 82 82 ESE 3 6 29.65 1004 10 16 0.00 0.00
4:53 am 04:53 Mostly Clear 74 23.3 69 20.6 85 85 ENE 3 6 29.67 1005 10 16 0.00 0.00
5:53 am 05:53 Mostly Sunny 74 23.3 70 21.1 88 88 ENE 3 6 29.70 1006 10 16 0.00 0.00
6:53 am 06:53 Mostly Sunny 75 23.9 71 21.7 88 88 SE 3 6 29.74 1007 10 16 0.00 0.00
7:53 am 07:53 Mostly Cloudy 78 25.6 72 22.2 82 82 E 7 11 29.70 1006 10 16 0.00 0.00
8:53 am 08:53 Mostly Cloudy 79 26.1 73 22.8 82 82 SE 3 6 29.72 1007 10 16 0.00 0.00
9:53 am 09:53 Partly Cloudy 82 27.8 74 23.3 77 77 ESE 8 13 29.70 1006 10 16 0.00 0.00
10:53 am 10:53 Mostly Cloudy 85 29.4 74 23.3 70 70 SE 13 20 29.68 1005 10 16 0.00 0.00
11:53 am 11:53 Mostly Cloudy 85 29.4 76 24.4 75 75 ESE 17 28 29.65 1004 10 16 0.00 0.00
12:41 pm 12:41 Mostly Cloudy 86 30 76 24.4 72 72 E 13 20 29.65 1004 10 16 0.00 0.00
12:53 pm 12:53 Cloudy 87 30.6 76 24.4 70 70 E 10 17 29.69 1005 10 16 0.00 0.00
1:28 pm 13:28 Mostly Cloudy 88 31.1 77 25 70 70 ESE 14 22 29.65 1004 10 16 0.00 0.00
1:53 pm 13:53 Mostly Cloudy 89 31.7 78 25.6 70 70 E 15 24 29.65 1004 10 16 0.00 0.00
2:53 pm 14:53 Mostly Cloudy 91 32.8 80 26.7 70 70 SE 16 26 29.60 1002 10 16 0.00 0.00
3:53 pm 15:53 Mostly Cloudy 94 34.4 79 26.1 62 62 SSE 15 24 29.56 1001 10 16 0.00 0.00
4:53 pm 16:53 Mostly Cloudy 95 35 80 26.7 62 62 SSW 15 24 29.54 1000 10 16 0.00 0.00
5:53 pm 17:53 Cloudy 94 34.4 79 26.1 62 62 SW 14 22 29.57 1001 10 16 0.00 0.00
6:53 pm 18:53 Mostly Cloudy 95 35 80 26.7 62 62 SW 16 26 29.58 1002 10 16 0.00 0.00
7:53 pm 19:53 Mostly Cloudy 94 34.4 79 26.1 62 62 W 13 20 29.59 1002 10 16 0.00 0.00
8:37 pm 20:37 Mostly Cloudy with Light Rain 85 29.4 75 23.9 72 72 N 15 24 29.60 1002 10 16 0.00 0.03
8:53 pm 20:53 Mostly Cloudy 84 28.9 74 23.3 72 72 NNE 8 13 29.63 1004 10 16 0.00 0.03
9:53 pm 21:53 Mostly Cloudy 83 28.3 73 22.8 72 72 NE 3 6 29.67 1005 10 16 0.00 0.00
10:53 pm 22:53 Partly Cloudy 82 27.8 72 22.2 72 72 N 10 17 29.70 1006 10 16 0.00 0.00
11:53 pm 23:53 Partly Cloudy 77 25 71 21.7 82 82 N 9 15 29.72 1006 10 16 0.00 0.00

Powered by AerisWeather